Date,TemperatureHighF,TemperatureAvgF,TemperatureLowF,DewpointHighF,DewpointAvgF,DewpointLowF,HumidityHigh,HumidityAvg,HumidityLow,PressureMaxIn,PressureMinIn,WindSpeedMaxMPH,WindSpeedAvgMPH,GustSpeedMaxMPH,PrecipitationSumIn
2013-4-1,43.5,38.3,27.6,40.7,26.1,8.9,94,65,31,29.77,29.43,13,5,25,0.03
2013-4-2,34.0,28.2,22.7,17.0,10.9,5.7,74,50,31,29.86,29.75,8,4,25,0.00
2013-4-3,39.6,31.8,24.8,17.2,10.5,6.2,53,41,25,30.17,29.87,9,5,24,0.00
2013-4-4,48.5,37.7,26.0,22.0,16.9,12.5,69,45,26,30.20,29.83,12,5,24,0.00
2013-4-5,41.2,36.2,30.7,34.5,23.0,13.0,93,60,36,30.00,29.75,10,4,24,0.04
2013-4-6,41.1,32.0,24.2,16.0,8.7,1.4,64,39,22,30.27,30.01,7,2,17,0.00
2013-4-7,61.8,46.0,32.8,39.3,28.9,12.3,81,54,27,30.12,29.58,13,4,23,0.04
2013-4-8,50.4,44.0,39.8,35.8,32.4,29.7,79,64,49,30.10,29.83,5,2,16,0.03
2013-4-9,50.2,43.6,37.5,42.9,38.9,35.9,95,84,69,29.98,29.68,6,3,12,0.26
2013-4-10,48.6,45.3,40.8,43.5,37.1,28.8,94,74,55,29.98,29.87,4,1,6,0.02
2013-4-11,39.8,35.0,31.6,27.4,17.8,13.6,61,50,37,30.15,29.93,6,3,13,0.00
2013-4-12,34.4,32.7,29.4,33.1,26.3,13.6,95,80,42,30.09,29.65,8,4,21,0.71
2013-4-13,42.2,39.2,34.4,39.1,36.9,33.4,97,91,83,29.70,29.65,5,3,16,0.00
2013-4-14,45.4,39.9,30.7,36.2,31.5,26.7,93,73,50,30.17,29.81,4,2,14,0.03
2013-4-15,59.2,43.8,28.1,38.4,31.5,25.0,91,66,35,30.25,30.02,8,2,13,0.00
2013-4-16,62.4,57.9,42.9,51.4,43.3,37.2,80,59,51,30.02,29.84,14,6,16,0.01
2013-4-17,54.5,45.4,38.6,32.4,29.2,20.0,74,55,27,30.29,30.09,5,2,14,0.00
2013-4-18,73.2,53.2,40.3,51.9,38.6,24.0,83,59,39,30.26,29.64,12,5,34,0.02
2013-4-19,76.8,64.1,44.1,57.4,51.0,35.3,89,64,42,29.65,29.27,14,9,37,0.14
2013-4-20,46.8,40.4,31.9,34.9,28.1,17.7,86,62,47,30.27,29.58,12,8,34,0.09
2013-4-21,45.2,36.1,28.8,22.2,16.5,12.9,64,46,27,30.62,30.32,4,2,13,0.00
2013-4-22,61.6,45.6,27.6,23.8,19.4,13.4,79,41,15,30.61,30.36,5,1,7,0.00
2013-4-23,60.2,48.6,34.0,38.2,27.1,19.3,76,45,28,30.36,29.99,7,2,14,0.00
2013-4-24,73.3,58.8,39.3,55.0,43.4,34.8,86,60,28,29.91,29.47,11,3,14,0.06
2013-4-25,54.5,45.7,38.3,43.0,29.5,23.3,88,56,30,30.19,29.60,14,4,30,0.02
2013-4-26,54.8,45.5,39.9,40.3,34.1,27.3,93,67,36,30.38,30.20,6,1,6,0.13
2013-4-27,59.2,46.0,32.8,39.3,33.0,28.8,87,63,36,30.39,30.22,3,1,4,0.00
2013-4-28,71.5,56.0,37.3,43.8,38.1,34.4,90,56,27,30.23,29.98,6,2,9,0.00
2013-4-29,63.1,58.7,51.4,46.3,44.2,40.9,74,59,45,30.05,29.99,7,2,10,0.00
2013-4-30,70.8,60.9,53.3,52.8,50.2,45.8,92,69,49,30.17,30.05,4,1,9,0.02